TimeCDT,TemperatureF,Dew PointF,Humidity,Sea Level PressureIn,VisibilityMPH,Wind Direction,Wind SpeedMPH,Gust SpeedMPH,PrecipitationIn,Events,Conditions,WindDirDegrees,DateUTC
12:15 AM,73.4,68.0,83,30.00,10.0,East,3.5,-,N/A,,Clear,100,2013-07-05 05:15:00
12:35 AM,71.6,68.0,88,30.01,10.0,Calm,Calm,-,N/A,,Clear,0,2013-07-05 05:35:00
12:55 AM,71.6,68.0,88,30.01,10.0,SE,4.6,-,N/A,,Clear,130,2013-07-05 05:55:00
1:15 AM,71.6,68.0,88,30.01,10.0,SE,3.5,-,N/A,,Clear,140,2013-07-05 06:15:00
1:35 AM,71.6,68.0,88,30.00,10.0,ESE,4.6,-,N/A,,Clear,110,2013-07-05 06:35:00
1:55 AM,71.6,68.0,88,30.00,10.0,Calm,Calm,-,N/A,,Clear,0,2013-07-05 06:55:00
2:15 AM,69.8,68.0,94,30.00,10.0,East,3.5,-,N/A,,Clear,100,2013-07-05 07:15:00
2:35 AM,69.8,68.0,94,30.00,10.0,ESE,3.5,-,N/A,,Clear,120,2013-07-05 07:35:00
2:55 AM,69.8,68.0,94,30.01,10.0,ESE,3.5,-,N/A,,Clear,120,2013-07-05 07:55:00
3:15 AM,69.8,68.0,94,30.01,10.0,SE,3.5,-,N/A,,Clear,130,2013-07-05 08:15:00
3:35 AM,69.8,68.0,94,30.01,10.0,SE,3.5,-,N/A,,Clear,140,2013-07-05 08:35:00
3:55 AM,69.8,68.0,94,30.00,10.0,SE,3.5,-,N/A,,Clear,130,2013-07-05 08:55:00
4:15 AM,69.8,68.0,94,30.01,10.0,Calm,Calm,-,N/A,,Clear,0,2013-07-05 09:15:00
4:35 AM,69.8,68.0,94,30.02,10.0,Calm,Calm,-,N/A,,Clear,0,2013-07-05 09:35:00
4:55 AM,69.8,68.0,94,30.02,10.0,Calm,Calm,-,N/A,,Clear,0,2013-07-05 09:55:00
5:15 AM,69.8,68.0,94,30.03,10.0,Calm,Calm,-,N/A,,Clear,0,2013-07-05 10:15:00
5:35 AM,69.8,68.0,94,30.03,10.0,ENE,3.5,-,N/A,,Clear,60,2013-07-05 10:35:00
5:55 AM,68.0,68.0,100,30.03,10.0,ENE,4.6,-,N/A,,Clear,70,2013-07-05 10:55:00
6:15 AM,69.8,68.0,94,30.03,10.0,East,5.8,-,N/A,,Clear,100,2013-07-05 11:15:00
6:35 AM,69.8,68.0,94,30.03,10.0,East,4.6,-,N/A,,Clear,90,2013-07-05 11:35:00
6:55 AM,69.8,68.0,94,30.03,10.0,East,3.5,-,N/A,,Clear,90,2013-07-05 11:55:00
7:15 AM,71.6,68.0,88,30.03,10.0,East,3.5,-,N/A,,Clear,90,2013-07-05 12:15:00
7:35 AM,71.6,69.8,94,30.04,10.0,East,3.5,-,N/A,,Clear,100,2013-07-05 12:35:00
7:55 AM,73.4,69.8,88,30.04,10.0,ESE,3.5,-,N/A,,Clear,110,2013-07-05 12:55:00
8:15 AM,73.4,69.8,88,30.06,10.0,ESE,4.6,-,N/A,,Clear,120,2013-07-05 13:15:00
8:35 AM,75.2,69.8,83,30.06,10.0,East,3.5,-,N/A,,Clear,100,2013-07-05 13:35:00
8:55 AM,77.0,69.8,78,30.06,10.0,ESE,3.5,-,N/A,,Scattered Clouds,110,2013-07-05 13:55:00
9:15 AM,77.0,69.8,78,30.06,10.0,Calm,Calm,-,N/A,,Scattered Clouds,0,2013-07-05 14:15:00
9:35 AM,78.8,69.8,74,30.05,10.0,Calm,Calm,-,N/A,,Clear,0,2013-07-05 14:35:00
9:55 AM,80.6,69.8,70,30.06,10.0,East,6.9,-,N/A,,Clear,90,2013-07-05 14:55:00
10:15 AM,80.6,69.8,70,30.06,10.0,ENE,5.8,-,N/A,,Scattered Clouds,60,2013-07-05 15:15:00
10:35 AM,82.4,71.6,70,30.06,10.0,ENE,9.2,-,N/A,,Scattered Clouds,70,2013-07-05 15:35:00
10:55 AM,80.6,69.8,70,30.07,10.0,East,8.1,-,N/A,,Scattered Clouds,100,2013-07-05 15:55:00
11:15 AM,82.4,69.8,66,30.06,10.0,East,9.2,-,N/A,,Scattered Clouds,100,2013-07-05 16:15:00
11:35 AM,82.4,69.8,66,30.07,10.0,East,11.5,17.3,N/A,,Scattered Clouds,80,2013-07-05 16:35:00
11:55 AM,82.4,69.8,66,30.07,10.0,East,8.1,-,N/A,,Scattered Clouds,100,2013-07-05 16:55:00
12:15 PM,82.4,69.8,66,30.06,10.0,ENE,10.4,-,N/A,,Scattered Clouds,70,2013-07-05 17:15:00
12:35 PM,84.2,68.0,58,30.05,10.0,ENE,8.1,-,N/A,,Clear,60,2013-07-05 17:35:00
12:55 PM,84.2,68.0,58,30.05,10.0,ENE,6.9,-,N/A,,Clear,60,2013-07-05 17:55:00
1:15 PM,86.0,68.0,55,30.04,10.0,ESE,9.2,-,N/A,,Scattered Clouds,110,2013-07-05 18:15:00
1:35 PM,86.0,68.0,55,30.03,10.0,East,10.4,-,N/A,,Mostly Cloudy,100,2013-07-05 18:35:00
1:55 PM,87.8,68.0,52,30.03,10.0,SE,6.9,-,N/A,,Scattered Clouds,140,2013-07-05 18:55:00
2:15 PM,87.8,68.0,52,30.02,10.0,East,9.2,16.1,N/A,,Scattered Clouds,90,2013-07-05 19:15:00
2:35 PM,86.0,66.2,51,30.02,10.0,SE,6.9,-,N/A,,Scattered Clouds,130,2013-07-05 19:35:00
2:55 PM,86.0,66.2,51,30.02,10.0,East,8.1,-,N/A,,Scattered Clouds,100,2013-07-05 19:55:00
3:15 PM,87.8,66.2,49,30.01,10.0,East,8.1,-,N/A,,Clear,100,2013-07-05 20:15:00
3:35 PM,86.0,66.2,51,30.02,10.0,ESE,3.5,-,N/A,,Scattered Clouds,120,2013-07-05 20:35:00
3:55 PM,78.8,60.8,54,30.03,10.0,WNW,21.9,31.1,N/A,Thunderstorm,Thunderstorm,300,2013-07-05 20:55:00
4:15 PM,73.4,57.2,57,30.00,10.0,NNW,34.5,42.6,N/A,Thunderstorm,Mostly Cloudy,340,2013-07-05 21:15:00
4:35 PM,71.6,64.4,78,30.01,7.0,NNW,16.1,-,0.04,Rain-Thunderstorm,Thunderstorms and Rain,340,2013-07-05 21:35:00
4:55 PM,69.8,64.4,83,30.03,1.8,WSW,10.4,-,0.36,Rain-Thunderstorm,Heavy Thunderstorms and Rain,240,2013-07-05 21:55:00
5:15 PM,69.8,64.4,83,30.02,2.0,ENE,4.6,-,0.10,Rain-Thunderstorm,Thunderstorms and Rain,60,2013-07-05 22:15:00
5:35 PM,71.6,64.4,78,30.01,10.0,ENE,11.5,20.7,0.11,Thunderstorm,Mostly Cloudy,70,2013-07-05 22:35:00
5:55 PM,71.6,64.4,78,30.00,10.0,East,12.7,-,0.11,,Clear,90,2013-07-05 22:55:00
6:15 PM,73.4,62.6,69,30.00,10.0,East,8.1,-,N/A,Thunderstorm,Scattered Clouds,100,2013-07-05 23:15:00
6:35 PM,71.6,64.4,78,29.98,10.0,Calm,Calm,-,N/A,,Clear,0,2013-07-05 23:35:00
6:55 PM,71.6,66.2,83,30.00,10.0,Calm,Calm,-,N/A,,Clear,0,2013-07-05 23:55:00
7:15 PM,71.6,64.4,78,30.01,10.0,Calm,Calm,-,N/A,,Clear,0,2013-07-06 00:15:00
7:35 PM,73.4,64.4,73,30.01,10.0,East,3.5,-,N/A,Thunderstorm,Clear,80,2013-07-06 00:35:00
7:55 PM,71.6,68.0,88,30.00,10.0,East,5.8,-,N/A,,Clear,80,2013-07-06 00:55:00
8:15 PM,71.6,66.2,83,30.00,10.0,NE,8.1,-,N/A,,Clear,50,2013-07-06 01:15:00
8:35 PM,71.6,66.2,83,30.02,10.0,ENE,3.5,-,N/A,,Scattered Clouds,70,2013-07-06 01:35:00
8:55 PM,71.6,66.2,83,30.03,10.0,Calm,Calm,-,N/A,,Scattered Clouds,0,2013-07-06 01:55:00
9:15 PM,69.8,66.2,88,30.03,5.0,NE,4.6,-,0.05,Rain,Light Rain,40,2013-07-06 02:15:00
9:35 PM,69.8,66.2,88,30.03,10.0,Calm,Calm,-,0.05,Rain,Light Rain,0,2013-07-06 02:35:00
9:55 PM,69.8,66.2,88,30.04,10.0,Calm,Calm,-,0.05,,Scattered Clouds,0,2013-07-06 02:55:00
10:15 PM,69.8,66.2,88,30.02,10.0,ESE,10.4,-,N/A,,Scattered Clouds,110,2013-07-06 03:15:00
10:35 PM,69.8,66.2,88,30.02,10.0,ESE,12.7,-,N/A,,Clear,110,2013-07-06 03:35:00
10:55 PM,69.8,68.0,94,30.03,10.0,ESE,15.0,20.7,N/A,,Clear,120,2013-07-06 03:55:00
11:15 PM,69.8,68.0,94,30.03,10.0,SE,12.7,18.4,N/A,,Clear,130,2013-07-06 04:15:00
11:35 PM,69.8,66.2,88,30.02,10.0,ESE,10.4,-,N/A,,Clear,120,2013-07-06 04:35:00
11:55 PM,69.8,66.2,88,30.03,10.0,Calm,Calm,-,N/A,,Clear,0,2013-07-06 04:55:00